Location: Ayer Observatory
(42.2600°N, 71.0700°W)
Time: 16:49:29
(UTC-05:00)

Tiangong 2 - Visible Passes

Search period start: 17 November 2018 00:00
Search period end: 27 November 2018 00:00
Orbit: 382 x 393 km, 42.8° (Epoch: 17 November)

Date Brightness Start Highest point End Pass type
(mag) Time Alt. Az. Time Alt. Az. Time Alt. Az.
23 Nov 4.0 05:59:34 10° SSW 06:01:52 18° SSE 06:04:11 10° ESE visible
24 Nov 4.3 05:02:33 10° SSE 05:03:30 11° SE 05:04:26 10° SE visible
25 Nov 2.9 05:38:25 10° SW 05:41:16 30° SSE 05:44:09 10° E visible
26 Nov 3.4 04:42:12 18° SSE 04:42:50 19° SSE 04:45:11 10° ESE visible
26 Nov 1.4 06:16:07 10° WSW 06:19:18 70° SSE 06:22:29 10° E visible
